www.pogodaiklimat.ru

Погода и климат >> Архив погоды >> Россия >> Ненецкий АО >> Нарьян-Мар


АРХИВ ПОГОДЫ в Нарьян-Маре

Время (UTC), дата Ветер
(напр.,м/с)
 
Видим.   Явления Облачность Т
(С)
Тd
(С)
f
(%)
Тe
(С)
Тes
(С)
Комфортность P
(гПа)
Po
(гПа)
Тmin
(С)
Tmax
(С)
R
(мм)
R24
(мм)
S
(см)
06 17.02 ЮВ 3 20 км [диам. гололёда 1 мм] 10/8 420 м
[Sc Ac und]
-5.9 -7.1 91 -12 -12 тепло 983.1 981.7 -5.9
09 17.02 ЮВ 4 4000 м слаб. снег 10/9 330 м
[Frnb As op]
-6.2 -7.5 90 -13 -13 тепло 982.1 980.7
12 17.02 В 4 2000 м снег {метель} 10/9 300 м
[Frnb As op]
-7.8 -9.0 91 -15 -15 по сезону 982.2 980.8
15 17.02 В 3 4000 м слаб. снег {метель} 10/9 270 м
[Frnb As op]
-7.7 -8.8 92 -14 -14 тепло 983.7 982.3 -5.2 2
18 17.02 В 2 4000 м слаб. снег {метель} 10/6 360 м
[Frnb As trans]
-8.3 -9.4 92 -13 -13 тепло 985.5 984.2
21 17.02 С 4 4000 м слаб. снег 10/8 330 м
[Frnb As trans]
-8.6 -9.7 92 -16 -16 по сезону 988.2 986.9
00 18.02 С 5
{13}
4000 м слаб. снег {метель} 10/8 240 м
[Frnb As op]
-11.7 -13.4 87 -20 -20 по сезону 991.6 990.2
03 18.02 С 3
{11}
4000 м слаб. снег {метель} 10/8 420 м
[Sc As op]
-13.0 -14.9 86 -19 -19 по сезону 994.1 992.7 -13.0 2 56
06 18.02 С 3 20 км {снег, метель} 3/3 600 м
[Sc]
-15.1 -17.4 83 -22 -22 по сезону 997.8 996.3 -15.1
09 18.02 СЗ 2 20 км 8/6 500 м
[Sc Ac trans]
-14.6 -17.4 79 -20 -19 по сезону 1001.0 999.6
12 18.02 З 2 20 км 4/3 600 м
[Sc Ac trans Ci fib]
-13.6 -16.3 80 -18 -18 по сезону 1002.8 1001.4
15 18.02 ЮЗ 2 20 км ясно -18.2 -20.4 83 -24 -24 по сезону 1004.0 1002.5 -13.0 0.0
18 18.02 З 2 20 км ясно -19.2 -21.5 82 -25 -25 по сезону 1004.4 1002.9
21 18.02 Ю 2 20 км 3/0
[Ac trans]
-20.5 -22.9 81 -26 -26 по сезону 1003.5 1002.0
00 19.02 ЮЗ 3 20 км 3/3 300 м
[St]
-17.9 -20.1 83 -25 -25 по сезону 1001.8 1000.3
03 19.02 Ю 4 4000 м слаб. ливневой снег 9/9 700 м
[Cb calv]
-15.9 -17.9 85 -24 -24 по сезону 999.9 998.4 -20.6 0.0 56
06 19.02 Ю 4 4000 м слаб. снег 10/8 480 м
[Sc As op]
-15.3 -17.3 85 -23 -23 по сезону 998.1 996.6
09 19.02 Ю 5
{10}
4000 м слаб. снег {метель} 10/8 420 м
[Sc As op]
-13.6 -15.6 85 -22 -22 по сезону 995.9 994.4
12 19.02 Ю 6-10
{11}
4000 м слаб. снег {метель} 10/9 300 м
[Frnb As op]
-12.4 -14.5 84 -21 -21 по сезону 994.4 993.0
15 19.02 Ю 4
{10}
4000 м слаб. снег {метель} 10/9 480 м
[Sc As op]
-11.8 -13.9 84 -19 -19 по сезону 993.9 992.5 -11.8 2
18 19.02 ЮЗ 4 4000 м слаб. снег {метель} 10/9 330 м
[Frnb As op]
-11.5 -13.5 85 -19 -19 по сезону 993.8 992.4
21 19.02 ЮЗ 4 2000 м слаб. ливневой снег 10/10 240 м
[Cb cap]
-10.9 -12.6 87 -18 -18 по сезону 994.4 993.0
00 20.02 ЮЗ 2 4000 м слаб. ливневой снег 9/9 450 м
[Cb calv]
-11.1 -12.8 87 -16 -16 по сезону 995.6 994.2
03 20.02 ЮЗ 1 20 км {ливн. осадки} 6/0
[Ac trans Ci fib]
-17.0 -19.0 84 -20 -20 по сезону 997.1 995.6 -17.0 0.6 56
06 20.02 СВ 1 20 км {ливн. осадки} 9/0
[Ac trans Ci fib]
-18.5 -20.6 83 -21 -21 по сезону 998.2 996.7 -20.0
09 20.02 СВ 1 20 км в посл. час снег 10/0
[Ac As]
-13.1 -14.9 86 -15 -15 по сезону 998.6 997.2
12 20.02 В 2 20 км {снег} 10/0
[Ac As]
-13.8 -15.9 84 -19 -19 по сезону 998.4 997.0
15 20.02 В 3 4000 м слаб. снег 10/9 360 м
[Frnb As op]
-14.4 -16.3 85 -21 -21 по сезону 997.8 996.4 -12.8 0.3
18 20.02 В 5 4000 м слаб. снег 10/9 330 м
[Frnb As op]
-14.4 -16.4 85 -23 -23 по сезону 997.2 995.8
21 20.02 В 5
{10}
4000 м слаб. снег {метель} 10/9 270 м
[Frnb As op]
-14.2 -16.1 85 -23 -23 по сезону 996.7 995.2
00 21.02 СВ 6-11
{11}
4000 м слаб. снег 10/9 300 м
[Frnb As op]
-14.3 -16.4 84 -24 -24 по сезону 996.6 995.2
03 21.02 СВ 6-11
{13}
4000 м слаб. ливневой снег 10/10 120 м
[Cb cap]
-14.0 -16.1 84 -23 -23 по сезону 997.6 996.2 -14.6 3 62
06 21.02 СВ 5
{12}
4000 м слаб. снег 10/9 360 м
[Frnb As op]
-14.1 -16.3 83 -23 -23 по сезону 999.3 997.8 -14.6
09 21.02 СВ 5
{12}
4000 м слаб. снег {метель} 10/8 330 м
[Frnb As op]
-13.3 -15.6 83 -22 -22 по сезону 1001.7 1000.2
12 21.02 СВ 5
{10}
4000 м слаб. снег {метель} 10/0
[Ac As]
-13.3 -15.9 81 -22 -22 по сезону 1004.7 1003.3
15 21.02 С 4 20 км позёмок {снег} 3/0
[Ac trans Ci fib]
-16.2 -18.8 80 -24 -24 по сезону 1008.6 1007.2 -13.2 2
18 21.02 С 3 20 км позёмок {снег} ясно -18.3 -22.4 70 -26 -26 по сезону 1011.8 1010.3
21 21.02 СЗ 2 20 км {метель} ясно -21.6 -26.6 64 -28 -28 прохладно 1014.4 1013.0
00 22.02 ЮЗ 1 20 км {метель} ясно -29.2 -32.6 72 -33 -33 опасность
обморожения
1016.5 1014.9
03 22.02 ЮЗ 1 20 км ясно -27.3 -30.4 75 -31 -31 опасность
обморожения
1018.2 1016.7 -29.3 63
06 22.02 ЮЗ 1 20 км 3/0
[Ac trans]
-24.0 -27.2 75 -27 -27 прохладно 1020.3 1018.8
09 22.02 штиль 0 20 км 6/0
[Ac trans]
-18.9 -23.0 70 -19 -18 по сезону 1022.0 1020.5
12 22.02 Ю 2 20 км 3/0
[Ac trans]
-17.9 -22.5 67 -23 -23 по сезону 1022.7 1021.3
15 22.02 Ю 2 20 км 4/3 300 м
[St Ac trans]
-22.3 -24.8 80 -29 -29 холодно 1022.2 1020.7 -17.5
18 22.02 Ю 3 20 км 6/6 840 м
[Sc]
-18.3 -20.5 83 -26 -26 по сезону 1020.0 1018.5
21 22.02 Ю 4 20 км {снег} 10/10 180 м
[St]
-17.1 -19.3 83 -25 -25 по сезону 1017.4 1015.9
00 23.02 Ю 5 20 км {снег} 10/10 330 м
[St]
-13.9 -15.7 86 -22 -22 по сезону 1013.2 1011.8
03 23.02 Ю 5 20 км позёмок 10/0
[As op]
-12.3 -14.2 86 -20 -20 по сезону 1008.7 1007.2 -22.3 0.0 61
06 23.02 Ю 7-11
{11}
20 км позёмок 10/6 500 м
[Sc As op]
-10.2 -13.1 79 -19 -19 по сезону 1005.3 1003.9
09 23.02 ЮЗ 7-11
{11}
2000 м слаб. ливневой снег {метель} 10/10 450 м
[Cb calv]
-9.0 -11.2 84 -18 -18 по сезону 1002.6 1001.2
12 23.02 ЮЗ 6
{11}
2000 м слаб. ливневой снег {метель} 10/10 240 м
[Cb cap]
-8.0 -9.7 88 -16 -16 по сезону 1000.6 999.2
15 23.02 ЮЗ 6-10
{11}
20 км позёмок {ливн. осадки} 10/10 240 м
[St]
-6.8 -8.4 88 -15 -15 по сезону 999.5 998.1 -6.8 0.9
18 23.02 ЮЗ 4
{10}
4000 м слаб. ливневой снег {метель} 10/10 210 м
[Cb cap]
-4.8 -4.8 100 -11 -11 тепло 998.5 997.1
21 23.02 З 5
{11}
4000 м слаб. ливневой снег {метель} 10/10 240 м
[Cb cap]
-1.0 -1.0 100 -8 -8 тепло 996.9 995.6
00 24.02 СЗ 6-11
{12}
20 км {ливн. осадки, метель} 10/10 270 м
[St]
+0.5 +0.4 99 -6 -6 тепло 996.5 995.1

 

Местоположение метеостанции Нарьян-Мар (Ненецкий АО, Россия): широта 67.63 долгота 53.02 высота над уровнем моря 12 м.

В архиве по умолчанию представлена погода в Нарьян-Маре за последнюю неделю. Архивные данные за месяц целиком и за предыдущие месяцы, начиная с января 2011 года, Вы можете получить, выбрав интересующий диапазон дат из раскрывающегося списка и нажав кнопку "Ввод!".


*Определитесь, кто Вы:
робот инопланетянин человек

Внимание! Время в таблицах - всемирное. Для получения местного времени необходимо прибавить поправку, которая равна 3 ч.

Смотрите также архив погоды в соседних городах и на ближайших метеорологических станциях:

Погода в Коткино (Ненецкий АО, Россия) (105 км)
Погода в Сенгейском Шаре (Ненецкий АО, Россия) (120 км)
Погода на Мысе Константиновском (Ненецкий АО, Россия) (145 км)
Погода в Ходоварихе (Ненецкий АО, Россия) (148 км)
Погода в Окуневом Носу (Коми, Россия) (155 км)
Погода в Индиге (Ненецкий АО, Россия) (184 км)
Погода в Бугрино (Ненецкий АО, Россия) (200 км)
Погода в Мутном Материке (Коми, Россия) (209 км)
Погода в Хорей-Вере (Ненецкий АО, Россия) (214 км)
Погода в Варандее (Ненецкий АО, Россия) (245 км)

Пояснения к столбцам:

Ветер - указаны скорость ветра в м/с - средняя за 10 мин, порывы в срок и между сроками (в фигурных скобках) и направление, откуда дует ветер: С - северный, СВ - северо-восточный, В - восточный, ЮВ - юго-восточный, Ю - южный, ЮЗ - юго-западный, З - западный, СЗ - северо-западный.
Видимость - горизонтальная дальность видимости в метрах или километрах. При видимости от 1 до 10 км при отсутствии осадков обычно наблюдается дымка, при ухудшении видимости до 1 км и менее - туман. В сухую погоду видимость может ухудшаться дымом, пылью или мглою.
Явления - указаны атмосферные явления, наблюдавшиеся в срок или в последний час перед сроком; фигурными скобками обозначены явления, наблюдавшиеся между сроками (за 1-3 часа до срока); квадратными скобками обозначены град или гололедные отложения с указанием их диаметра в мм.
Облачность - указаны через наклонную черту общая и нижняя облачность в баллах и высота нижней границы облаков в метрах; квадратными скобками обозначены формы облаков: Ci - перистые, Cs - перисто-слоистые, Cc - перисто-кучевые, Ac - высококучевые, As - высокослоистые, Sc - слоисто-кучевые, Ns - слоисто-дождевые, Cu - кучевые, Cb - кучево-дождевые. Подробнее классификацию облаков см. в Атласе облаков (PDF).
T - Температура воздуха - температура, измеренная на высоте 2 м над землей.
Td - Температура точки росы - температура, при понижении до которой содержащийся в воздухе водяной пар достигнет насыщения.
f - Относительная влажность воздуха - влажноcть воздуха, измеренная на высоте 2 м над землей.
Te - Эффективная температура - температура, которую ощущает одетый по сезону человек в тени. Характеристика душности погоды. При расчете учитывается влияние влажности воздуха и скорости ветра на теплоощущения человека.
Tes - Эффективная температура на солнце - температура, которую ощущает человек, с поправкой на солнечный нагрев. Характеристика знойности погоды. Зависит от высоты солнца над горизонтом, облачности и скорости ветра. Ночью, в пасмурную погоду, а также при ветре 12 м/с и более поправка равна нулю.
P - Атмосферное давление - приведенное к уровню моря атмосферное давление.
Po - Атмосферное давление - измеренное на уровне метеостанции атмосферное давление.
Tmin - Минимальная температура - минимум температуры воздуха на высоте 2 м над землей.
Tmax - Максимальная температура - максимум температуры воздуха на высоте 2 м над землей.
R - Количество осадков - Количество выпавших осадков за период времени, мм. При наведении курсора мыши на число - период времени, за который выпало указанное количество осадков.
R24 - Количество осадков - Количество выпавших осадков за 24 часа, мм.
S - Снежный покров - Высота снежного покрова, см. При наведении курсора мыши на число - состояние снежного покрова и степень покрытия местности в баллах.